Other Public Products
Issued by NWS Grand Forks, ND

Home | Current Version | Previous Version | Text Only | Print | Product List | Glossary On
Versions: 1 2 3 4 5 6 7 8 9 10 11 12 13 14 15 16 17 18 19 20 21 22 23 24 25 26 27 28 29 30 31 32 33 34 35 36 37 38 39 40 41 42 43 44 45 46 47 48 49 50
000
FPUS83 KFGF 020131
OPUFGF
PRAIRIE TO PINES WEATHER ROUNDUP
NATIONAL WEATHER SERVICE EASTERN NORTH DAKOTA/GRAND FORKS ND
800 PM CDT MON SEP 01 2014

 **SATELLITE DATA USED TO AUGMENT SKY COVER AT AUTOMATED STATIONS**
 *****  WEATHER ACROSS EASTERN NORTH DAKOTA  *****

CITY           SKY/WX    TMP DP  RH WIND       PRES   REMARKS
GRAND FORKS    PTCLDY    65  58  78 CALM      29.73R
GRAND FORKS AF CLEAR     64  58  80 SW5       29.75R
GRAND CITY NWS   N/A     61 N/A N/A NW3         N/A
BUXTON         NOT AVBL
DEVILS LAKE    CLEAR     64  48  55 CALM      29.75S
FARGO          PTCLDY    64  55  72 E8        29.75R
WAHPETON ARPT  CLEAR     61  54  77 N7        29.77R
$$

 *****  WEATHER ACROSS CENTRAL AND WESTERN NORTH DAKOTA  *****

CITY           SKY/WX    TMP DP  RH WIND       PRES   REMARKS
JAMESTOWN      CLEAR     63  53  70 NW6       29.79R
BISMARCK       PTCLDY    68  48  48 NW3       29.83R
MINOT          PTCLDY    66  44  45 W8        29.78R
MINOT AFB      CLEAR     63  51  65 W8        29.78R
GARRISON         N/A     61  51  70 W6        29.81R
WILLISTON      PTCLDY    66  47  50 W7        29.82S
DICKINSON      CLEAR     62  49  62 W6        29.86R
HETTINGER      MOCLDY    63  49  60 W5        29.90S
$$

 *****  OTHER OBSERVATIONS NORTHEAST NORTH DAKOTA  *****

CITY           SKY/WX    TMP DP  RH WIND       PRES   REMARKS
WALHALLA         N/A     64  48  55 W5        29.72R
LANGDON        FAIR      59  50  72 W7        29.75R
CAVALIER       FAIR      63  55  77 SW6       29.71S
GRAFTON        FAIR      63  55  77 SW7       29.72S
CANDO          FAIR      57  54  88 SW6       29.77R
FORT TOTTEN      N/A     66  48  53 NW2       29.95
ROLLA          FAIR      57  54  88 W6        29.77S
RUGBY          FAIR      57  54  88 SW8       29.77S
 ***** THE ABOVE OBSERVATIONS ARE NON NWS ARE NOT QUALITY
        CONTROLLED AND MAY MIS-REPORT RAIN FOR SNOW...
$$

 *****  OTHER OBSERVATIONS SOUTHEAST NORTH DAKOTA *****

CITY           SKY/WX    TMP DP  RH WIND       PRES   REMARKS
COOPERSTOWN    NOT AVBL
VALLEY CITY    FAIR      59  54  82 NW6       29.79R
OAKES            N/A     64  57  77 NW8       29.80R
GWINNER        CLEAR     66  52  59 W7        29.81R
SHEYENNE NWR     N/A     69  53  56 NW6       29.95
BUFFALO          N/A     65  49  55 CALM        N/A
WYNDMERE       NOT AVBL
 ***** THE ABOVE OBSERVATIONS ARE NON NWS ARE NOT QUALITY
       CONTROLLED AND MAY MIS-REPORT RAIN FOR SNOW...
$$

  *****  WEATHER ACROSS NORTHERN MINNESOTA  *****

CITY           SKY/WX    TMP DP  RH WIND       PRES   REMARKS
FLAG ISLAND    PTCLDY    61  54  77 S6        29.68R
WARROAD        PTCLDY    59  55  88 S6        29.71S
ROSEAU         CLEAR     59  54  82 SW5       29.71S
HALLOCK        CLEAR     61  55  82 SW3       29.70S
THF RVR FALLS  CLEAR     61  55  82 CALM      29.74R
HALSTAD          N/A     61  57  87 S3          N/A
FOSSTON        MOCLDY    55  54  94 SW5       29.76R
BAUDETTE       MOCLDY    60  54  80 CALM      29.71R
WASKISH        MOCLDY    61  54  77 CALM      29.72S
CROOKSTON      CLEAR     61  57  88 SW7       29.75R
$$
  *****  WEATHER ACROSS CENTRAL AND WEST MINNESOTA  *****

CITY           SKY/WX    TMP DP  RH WIND       PRES   REMARKS
BEMIDJI        CLOUDY    58  54  88 CALM      29.75R
PARK RAPIDS    LGT RAIN  58  56  93 SE6       29.76S
WADENA         TSTM      54  52  94 CALM      29.79S
DETROIT LAKES  MOCLDY    59  55  88 CALM      29.79R
MOORHEAD       PTCLDY    64  61  88 S6        29.78R
FERGUS FALLS   PTCLDY    64  52  63 NE3       29.77R
ELBOW LAKE     FAIR      63  57  80 SW9       29.76S
MORRIS MN      MOCLDY    63  55  77 SW3       29.77S
STAPLES        TSTM      61  52  72 NW13      29.81R
WHEATON        PTCLDY    63  57  82 SW5       29.80R
$$
  *****  WEATHER ELSEWHERE ACROSS MINNESOTA  *****

CITY           SKY/WX    TMP DP  RH WIND       PRES   REMARKS
DULUTH         PTCLDY    61  51  70 W6        29.73R
INTRNTL FALLS  LGT RAIN  62  51  67 W13       29.71R
ELY            CLEAR     57  52  82 CALM      29.71R
CLOQUET        CLEAR     61  52  72 W3        29.75R
BRAINERD       PTCLDY    65  57  75 W5        29.77R
HIBBING        PTCLDY    61  52  72 W3        29.73R
ALEXANDRIA     PTCLDY    63  59  87 SE5       29.78R
SAINT CLOUD    PTCLDY    71  57  61 SW7       29.76S
MINNEAPOLIS    PTCLDY    73  55  53 W5        29.78R
$$

  *****  WEATHER ACROSS SOUTH DAKOTA  *****

CITY           SKY/WX    TMP DP  RH WIND       PRES   REMARKS
SIOUX FALLS    PTCLDY    70  55  59 CALM      29.85R
BROOKINGS      NOT AVBL
WATERTOWN      MOCLDY    64  51  62 SW15      29.83R
HURON          CLOUDY    60  55  83 S3        29.84F
SISSETON         N/A     67  56  67 W8        29.77R
ABERDEEN       CLEAR     66  51  58 W7        29.81R
MITCHELL       LGT RAIN  64  54  69 NW12      29.86R
PIERRE         CLOUDY    64  53  67 NE5       29.86R
MOBRIDGE       CLOUDY    65  56  72 N6        29.83R
RAPID CITY     PTCLDY    64  51  62 NE3       29.96R
$$

  *****  SOME WEATHER IN NEARBY STATES *****

CITY           SKY/WX    TMP DP  RH WIND       PRES   REMARKS
GLASGOW MT     PTCLDY    65  49  56 S7        29.82F
GREAT FALLS MT SUNNY     68  34  28 W20G25    29.90R
CHEYENNE WY    PTCLDY    69  32  25 NW12      30.07R
SCOTTSBLUFF NE LGT RAIN  68  48  48 N10       29.99R
OMAHA NE       CLOUDY    74  61  63 CALM      29.86S
DES MOINES IA  CLOUDY    73  64  73 W5        29.85S
DAVENPORT IA   CLEAR     71  65  81 W7        29.82S
CHICAGO IL     PTCLDY    77  63  61 SW13      29.79R
EAU CLAIRE WI  PTCLDY    66  58  75 SW5       29.77R
LA CROSSE WI   CLEAR     71  60  68 W5        29.78R
$$

  *****  SOME NATIONAL WEATHER *****

CITY           SKY/WX    TMP DP  RH WIND       PRES   REMARKS
LA GUARDIA NY  PTCLDY    83  71  67 S7        29.93S
RALEIGH NC     PTCLDY    80  72  76 CALM      30.04S
ATLANTA GA     CLOUDY    77  72  84 S5        30.09F
NEW ORLEANS LA CLOUDY    82  75  79 NE3       30.03R
OKLAHOMA CITY  PTCLDY    90  69  50 S17       29.78F HX  94
ALBUQUERQUE NM PTCLDY    90  36  14 SW7       30.01F
SALT LAKE CITY SUNNY     77  32  19 NE9       30.04F
LOS ANGELES CA MOSUNNY   75  65  70 W8        29.78S
BOISE ID       SUNNY     76  36  23 N8        30.00S
SEATTLE WA     MOSUNNY   73  54  51 S6        30.03F
$$

*** WEATHER ACROSS MANITOBA...SASKATCHEWAN AND ONTARIO ***
                ***ONTARIO***

CITY           SKY/WX    TMP DP  RH WIND       PRES   REMARKS
GERALDTON      MOCLDY    61  59  94 W3        29.54R
THUNDER BAY    PTCLDY    63  57  82 W8        29.62R
SIOUX LOOKOUT  LGT RAIN  63  54  72 W7        29.62R
TORONTO        MOCLDY    79  68  69 S10       29.82F
BIG TROUT LK   MOCLDY    59  54  82 NW2       29.47R
PICKLE LAKE    PTCLDY    61  54  77 W8        29.54R
DRYDEN         CLOUDY    61  54  77 SW10      29.66R
KENORA         PTCLDY    57  52  82 SW9       29.67R
$$
                *** MANITOBA***

CITY           SKY/WX    TMP DP  RH WIND       PRES   REMARKS
BRANDON        PTCLDY    63  48  59 W9        29.72R
DAUPHIN        MOCLDY    63  52  67 W6        29.67R
ISLAND LAKE    MOCLDY    55  54  94 CALM      29.57R THUNDER
PILOT MOUND      N/A     63  46  55 W3          N/A
THE PAS        PTCLDY    61  48  63 SW2       29.61
THOMPSON       PTCLDY    61  50  67 W6        29.52S
WINNIPEG       PTCLDY    61  52  72 W8        29.67R
CHURCHILL      MOCLDY    52  50  93 E8        29.50S
GILLAM         MOCLDY    64  54  68 W6        29.48R
$$
                ***SASKATCHEWAN***

CITY           SKY/WX    TMP DP  RH WIND       PRES   REMARKS
ESTEVAN        PTCLDY    63  45  51 NW6       29.79S
KINDERSLEY     MOCLDY    57  50  77 NE12      29.74S
LLOYDMINSTER   MOCLDY    59  43  55 NW7       29.71S
PRINCE ALBERT  MOCLDY    59  48  67 S3        29.66S
REGINA         MOCLDY    63  48  59 NW5       29.76F
YORKTON        CLEAR     61  46  59 W8        29.72R


USA.gov is the U.S. government's official web portal to all federal, state and local government web resources and services.